| time (UTC) | temp C | wind direction | speed KPH | gust KPH | rain 1hr cm | rain 24hr cm | rain mn cm | humidity % | barometer mb |
| 20260906214504 | 30 | 76 | 3.2 | 12.9 | 0.00 | 0.00 | 0.00 | 39 | 1017.6 |
| 20260906214002 | 30 | 76 | 4.8 | 12.9 | 0.00 | 0.00 | 0.00 | 37 | 1017.7 |
| 20260906213502 | 30 | 76 | 1.6 | 12.9 | 0.00 | 0.00 | 0.00 | 39 | 1017.7 |
| 20260906213007 | 30 | 76 | 0.0 | 11.3 | 0.00 | 0.00 | 0.00 | 40 | 1017.8 |
| 20260906212501 | 30 | 76 | 1.6 | 11.3 | 0.00 | 0.00 | 0.00 | 38 | 1017.9 |
| 20260906212003 | 30 | 76 | 3.2 | 12.9 | 0.00 | 0.00 | 0.00 | 38 | 1017.9 |
| 20260906211503 | 29 | 75 | 0.0 | 12.9 | 0.00 | 0.00 | 0.00 | 38 | 1018.0 |
| 20260906211001 | 29 | 75 | 0.0 | 6.4 | 0.00 | 0.00 | 0.00 | 39 | 1018.1 |
| 20260906210505 | 29 | 75 | 0.0 | 11.3 | 0.00 | 0.00 | 0.00 | 38 | 1018.3 |
| 20260906210005 | 30 | 75 | 4.8 | 12.9 | 0.00 | 0.00 | 0.00 | 36 | 1018.4 |
| 20260906205502 | 30 | 74 | 1.6 | 16.1 | 0.00 | 0.00 | 0.00 | 35 | 1018.4 |
| 20260906205001 | 30 | 74 | 3.2 | 16.1 | 0.00 | 0.00 | 0.00 | 37 | 1018.4 |
| 20260906204504 | 30 | 73 | 1.6 | 14.5 | 0.00 | 0.00 | 0.00 | 36 | 1018.4 |
| 20260906204005 | 30 | 73 | 8.0 | 16.1 | 0.00 | 0.00 | 0.00 | 37 | 1018.4 |
| 20260906203505 | 30 | 71 | 1.6 | 16.1 | 0.00 | 0.00 | 0.00 | 40 | 1018.6 |
| 20260906203002 | 30 | 62 | 0.0 | 12.9 | 0.00 | 0.00 | 0.00 | 40 | 1018.6 |
| 20260906202502 | 30 | 62 | 0.0 | 8.0 | 0.00 | 0.00 | 0.00 | 39 | 1018.6 |
| 20260906202005 | 30 | 62 | 1.6 | 8.0 | 0.00 | 0.00 | 0.00 | 39 | 1018.6 |
| 20260906201516 | 30 | 62 | 0.0 | 12.9 | 0.00 | 0.00 | 0.00 | 37 | 1018.7 |
| 20260906201008 | 30 | 62 | 3.2 | 12.9 | 0.00 | 0.00 | 0.00 | 41 | 1018.8 |
| 20260906200503 | 30 | 62 | 0.0 | 16.1 | 0.00 | 0.00 | 0.00 | 40 | 1018.9 |
| 20260906200008 | 30 | 61 | 4.8 | 16.1 | 0.00 | 0.00 | 0.00 | 41 | 1019.2 |
| 20260906195501 | 30 | 58 | 4.8 | 16.1 | 0.00 | 0.00 | 0.00 | 42 | 1019.3 |
| 20260906195003 | 30 | 48 | 3.2 | 11.3 | 0.00 | 0.00 | 0.00 | 41 | 1019.3 |
| 20260906194508 | 30 | 48 | 0.0 | 6.4 | 0.00 | 0.00 | 0.00 | 40 | 1019.3 |
| 20260906194004 | 30 | 48 | 1.6 | 6.4 | 0.00 | 0.00 | 0.00 | 40 | 1019.3 |
| 20260906193502 | 29 | 48 | 0.0 | 4.8 | 0.00 | 0.00 | 0.00 | 41 | 1019.3 |
| 20260906193004 | 29 | 48 | 0.0 | 6.4 | 0.00 | 0.00 | 0.00 | 40 | 1019.3 |
| 20260906192503 | 29 | 48 | 0.0 | 6.4 | 0.00 | 0.00 | 0.00 | 43 | 1019.4 |
| 20260906192009 | 29 | 48 | 0.0 | 11.3 | 0.00 | 0.00 | 0.00 | 42 | 1019.5 |
| 20260906191506 | 29 | 48 | 1.6 | 11.3 | 0.00 | 0.00 | 0.00 | 41 | 1019.6 |
| 20260906191003 | 30 | 47 | 3.2 | 11.3 | 0.00 | 0.00 | 0.00 | 40 | 1019.7 |
| 20260906190508 | 30 | 46 | 3.2 | 11.3 | 0.00 | 0.00 | 0.00 | 40 | 1019.8 |
| 20260906190003 | 30 | 43 | 3.2 | 8.0 | 0.00 | 0.00 | 0.00 | 40 | 1019.9 |
| 20260906185507 | 30 | 42 | 0.0 | 11.3 | 0.00 | 0.00 | 0.00 | 39 | 1020.0 |
| 20260906185005 | 29 | 42 | 1.6 | 11.3 | 0.00 | 0.00 | 0.00 | 40 | 1020.2 |
| 20260906184503 | 29 | 41 | 1.6 | 11.3 | 0.00 | 0.00 | 0.00 | 41 | 1020.3 |
| 20260906184002 | 29 | 40 | 1.6 | 8.0 | 0.00 | 0.00 | 0.00 | 45 | 1020.5 |
| 20260906183504 | 28 | 38 | 0.0 | 3.2 | 0.00 | 0.00 | 0.00 | 44 | 1020.5 |
| 20260906183004 | 28 | 38 | 0.0 | 4.8 | 0.00 | 0.00 | 0.00 | 42 | 1020.5 |
| 20260906182502 | 28 | 38 | 0.0 | 4.8 | 0.00 | 0.00 | 0.00 | 41 | 1020.6 |
| 20260906182004 | 28 | 38 | 0.0 | 4.8 | 0.00 | 0.00 | 0.00 | 44 | 1020.7 |
| 20260906181504 | 28 | 38 | 0.0 | 12.9 | 0.00 | 0.00 | 0.00 | 45 | 1020.8 |
| 20260906181003 | 28 | 38 | 0.0 | 12.9 | 0.00 | 0.00 | 0.00 | 44 | 1020.8 |
| 20260906180504 | 28 | 36 | 0.0 | 9.7 | 0.00 | 0.00 | 0.00 | 47 | 1020.9 |
| 20260906180004 | 28 | 32 | 1.6 | 9.7 | 0.00 | 0.00 | 0.00 | 45 | 1021.0 |
| 20260906175506 | 28 | 27 | 0.0 | 1.6 | 0.00 | 0.00 | 0.00 | 48 | 1021.1 |
| 20260906175008 | 28 | 27 | 0.0 | 4.8 | 0.00 | 0.00 | 0.00 | 47 | 1021.3 |
| 20260906174510 | 28 | 27 | 0.0 | 6.4 | 0.00 | 0.00 | 0.00 | 49 | 1021.4 |
| 20260906174004 | 27 | 27 | 0.0 | 6.4 | 0.00 | 0.00 | 0.00 | 50 | 1021.5 |
| 20260906173506 | 27 | 27 | 0.0 | 4.8 | 0.00 | 0.00 | 0.00 | 51 | 1021.5 |
| 20260906173004 | 27 | 27 | 0.0 | 6.4 | 0.00 | 0.00 | 0.00 | 52 | 1021.6 |
| 20260906172503 | 27 | 27 | 1.6 | 6.4 | 0.00 | 0.00 | 0.00 | 50 | 1021.7 |
| 20260906172005 | 27 | 24 | 1.6 | 6.4 | 0.00 | 0.00 | 0.00 | 51 | 1021.8 |
| 20260906171506 | 27 | 22 | 0.0 | 6.4 | 0.00 | 0.00 | 0.00 | 53 | 1021.9 |
| 20260906171003 | 27 | 21 | 0.0 | 11.3 | 0.00 | 0.00 | 0.00 | 54 | 1021.8 |
| 20260906170507 | 26 | 21 | 0.0 | 11.3 | 0.00 | 0.00 | 0.00 | 54 | 1021.9 |
| 20260906170005 | 26 | 360 | 0.0 | 3.2 | 0.00 | 0.00 | 0.00 | 56 | 1022.0 |
| 20260906165505 | 26 | 360 | 0.0 | 3.2 | 0.00 | 0.00 | 0.00 | 54 | 1022.1 |
| 20260906165006 | 26 | 360 | 0.0 | 4.8 | 0.00 | 0.00 | 0.00 | 56 | 1022.2 |
| 20260906164504 | 26 | 360 | 0.0 | 4.8 | 0.00 | 0.00 | 0.00 | 55 | 1022.2 |
| 20260906164008 | 26 | 360 | 0.0 | 3.2 | 0.00 | 0.00 | 0.00 | 55 | 1022.1 |
| 20260906163502 | 26 | 360 | 0.0 | 3.2 | 0.00 | 0.00 | 0.00 | 55 | 1021.9 |
| 20260906163006 | 26 | 360 | 0.0 | 3.2 | 0.00 | 0.00 | 0.00 | 54 | 1021.9 |
| 20260906162508 | 26 | 360 | 0.0 | 3.2 | 0.00 | 0.00 | 0.00 | 56 | 1021.9 |
| 20260906162011 | 26 | 360 | 0.0 | 6.4 | 0.00 | 0.00 | 0.00 | 57 | 1022.0 |
| 20260906161506 | 25 | 360 | 0.0 | 9.7 | 0.00 | 0.00 | 0.00 | 57 | 1022.0 |
| 20260906161011 | 25 | 360 | 0.0 | 8.0 | 0.00 | 0.00 | 0.00 | 59 | 1022.0 |
| 20260906160508 | 25 | 11 | 0.0 | 6.4 | 0.00 | 0.00 | 0.00 | 59 | 1022.1 |
| 20260906160005 | 24 | 9 | 0.0 | 3.2 | 0.00 | 0.00 | 0.00 | 60 | 1022.0 |
| 20260906155505 | 24 | 9 | 0.0 | 3.2 | 0.00 | 0.00 | 0.00 | 62 | 1022.1 |
| 20260906155010 | 23 | 9 | 0.0 | 4.8 | 0.00 | 0.00 | 0.00 | 61 | 1022.2 |
| 20260906154510 | 23 | 9 | 0.0 | 4.8 | 0.00 | 0.00 | 0.00 | 63 | 1022.2 |
| 20260906154005 | 23 | 10 | 0.0 | 4.8 | 0.00 | 0.00 | 0.00 | 66 | 1022.1 |
| 20260906153504 | 22 | 10 | 0.0 | 9.7 | 0.00 | 0.00 | 0.00 | 66 | 1022.1 |
| 20260906153017 | 22 | 12 | 0.0 | 9.7 | 0.00 | 0.00 | 0.00 | 65 | 1022.2 |
| 20260906152510 | 22 | 347 | 0.0 | 3.2 | 0.00 | 0.00 | 0.00 | 65 | 1022.3 |
| 20260906152003 | 22 | 347 | 0.0 | 3.2 | 0.00 | 0.00 | 0.00 | 67 | 1022.2 |
| 20260906151514 | 22 | 347 | 0.0 | 4.8 | 0.00 | 0.00 | 0.00 | 68 | 1022.2 |
| 20260906151012 | 22 | 347 | 0.0 | 4.8 | 0.00 | 0.00 | 0.00 | 69 | 1022.3 |
| 20260906150506 | 21 | 342 | 0.0 | 3.2 | 0.00 | 0.00 | 0.00 | 70 | 1022.4 |
| 20260906150012 | 21 | 342 | 0.0 | 3.2 | 0.00 | 0.00 | 0.00 | 72 | 1022.4 |
| 20260906145506 | 21 | 342 | 0.0 | 3.2 | 0.00 | 0.00 | 0.00 | 70 | 1022.4 |
| 20260906145004 | 21 | 341 | 0.0 | 3.2 | 0.00 | 0.00 | 0.00 | 71 | 1022.5 |
| 20260906144515 | 21 | 341 | 0.0 | 3.2 | 0.00 | 0.00 | 0.00 | 72 | 1022.3 |
| 20260906144007 | 20 | 341 | 0.0 | 6.4 | 0.00 | 0.00 | 0.00 | 73 | 1022.4 |
| 20260906143504 | 20 | 341 | 0.0 | 6.4 | 0.00 | 0.00 | 0.00 | 74 | 1022.2 |
| 20260906143016 | 20 | 339 | 0.0 | 6.4 | 0.00 | 0.00 | 0.00 | 76 | 1022.2 |
| 20260906142504 | 20 | 339 | 0.0 | 3.2 | 0.00 | 0.00 | 0.00 | 78 | 1022.3 |
| 20260906142005 | 19 | 340 | 0.0 | 3.2 | 0.00 | 0.00 | 0.00 | 78 | 1022.3 |
| 20260906141517 | 19 | 340 | 0.0 | 3.2 | 0.00 | 0.00 | 0.00 | 80 | 1022.2 |
| 20260906141004 | 18 | 341 | 0.0 | 3.2 | 0.00 | 0.00 | 0.00 | 82 | 1022.2 |
| 20260906140502 | 18 | 341 | 0.0 | 4.8 | 0.00 | 0.00 | 0.00 | 83 | 1022.3 |
| 20260906140017 | 17 | 341 | 0.0 | 4.8 | 0.00 | 0.00 | 0.00 | 84 | 1022.3 |
| 20260906135514 | 17 | 350 | 0.0 | 3.2 | 0.00 | 0.00 | 0.00 | 85 | 1022.3 |
| 20260906135003 | 17 | 351 | 0.0 | 1.6 | 0.00 | 0.00 | 0.00 | 85 | 1022.3 |
| 20260906134518 | 17 | 351 | 0.0 | 1.6 | 0.00 | 0.00 | 0.00 | 85 | 1022.2 |
| 20260906134013 | 17 | 351 | 0.0 | 1.6 | 0.00 | 0.00 | 0.00 | 85 | 1022.3 |
| 20260906133504 | 17 | 351 | 0.0 | 1.6 | 0.00 | 0.00 | 0.00 | 86 | 1022.2 |
| 20260906133014 | 17 | 351 | 0.0 | 0.0 | 0.00 | 0.00 | 0.00 | 85 | 1022.0 |
| 20260906132509 | 17 | 351 | 0.0 | 1.6 | 0.00 | 0.00 | 0.00 | 85 | 1022.0 |
| 20260906132005 | 17 | 351 | 0.0 | 1.6 | 0.00 | 0.00 | 0.00 | 86 | 1022.1 |
| 20260906131520 | 17 | 351 | 0.0 | 1.6 | 0.00 | 0.00 | 0.00 | 86 | 1021.9 |
| 20260906131009 | 17 | 351 | 0.0 | 1.6 | 0.00 | 0.00 | 0.00 | 86 | 1021.8 |
| 20260906130507 | 17 | 351 | 0.0 | 1.6 | 0.00 | 0.00 | 0.00 | 86 | 1021.9 |
| 20260906130027 | 16 | 351 | 0.0 | 1.6 | 0.00 | 0.00 | 0.00 | 86 | 1021.8 |
| 20260906125506 | 16 | 351 | 0.0 | 1.6 | 0.00 | 0.00 | 0.00 | 86 | 1021.8 |
| 20260906125009 | 16 | 351 | 0.0 | 1.6 | 0.00 | 0.00 | 0.00 | 86 | 1021.8 |
| 20260906124523 | 16 | 351 | 0.0 | 0.0 | 0.00 | 0.00 | 0.00 | 85 | 1021.8 |
| 20260906124004 | 16 | 351 | 0.0 | 0.0 | 0.00 | 0.00 | 0.00 | 85 | 1021.8 |
| 20260906123507 | 16 | 351 | 0.0 | 0.0 | 0.00 | 0.00 | 0.00 | 84 | 1021.7 |
| 20260906123027 | 16 | 351 | 0.0 | 0.0 | 0.00 | 0.00 | 0.00 | 84 | 1021.7 |
| 20260906122514 | 16 | 351 | 0.0 | 1.6 | 0.00 | 0.00 | 0.00 | 84 | 1021.6 |
| 20260906122004 | 17 | 351 | 0.0 | 1.6 | 0.00 | 0.00 | 0.00 | 83 | 1021.7 |
| 20260906121517 | 17 | 351 | 0.0 | 1.6 | 0.00 | 0.00 | 0.00 | 83 | 1021.8 |
| 20260906121016 | 16 | 351 | 0.0 | 1.6 | 0.00 | 0.00 | 0.00 | 83 | 1021.7 |
| 20260906120510 | 16 | 351 | 0.0 | 1.6 | 0.00 | 0.00 | 0.00 | 82 | 1021.6 |
| 20260906120017 | 16 | 351 | 0.0 | 3.2 | 0.00 | 0.00 | 0.00 | 80 | 1021.5 |
| 20260906115511 | 16 | 351 | 0.0 | 3.2 | 0.00 | 0.00 | 0.00 | 79 | 1021.6 |
| 20260906115011 | 16 | 352 | 0.0 | 3.2 | 0.00 | 0.00 | 0.00 | 79 | 1021.5 |
| 20260906114512 | 16 | 352 | 0.0 | 3.2 | 0.00 | 0.00 | 0.00 | 78 | 1021.6 |
| 20260906114010 | 16 | 352 | 0.0 | 1.6 | 0.00 | 0.00 | 0.00 | 77 | 1021.5 |
| 20260906113510 | 16 | 352 | 0.0 | 1.6 | 0.00 | 0.00 | 0.00 | 77 | 1021.6 |
| 20260906113027 | 16 | 352 | 0.0 | 3.2 | 0.00 | 0.00 | 0.00 | 77 | 1021.5 |
| 20260906112508 | 16 | 352 | 0.0 | 3.2 | 0.00 | 0.00 | 0.00 | 76 | 1021.3 |
| 20260906112012 | 16 | 352 | 0.0 | 1.6 | 0.00 | 0.00 | 0.00 | 76 | 1021.4 |
| 20260906111527 | 16 | 352 | 0.0 | 1.6 | 0.00 | 0.00 | 0.00 | 75 | 1021.4 |
| 20260906111007 | 16 | 352 | 0.0 | 1.6 | 0.00 | 0.00 | 0.00 | 75 | 1021.4 |
| 20260906110515 | 16 | 352 | 0.0 | 1.6 | 0.00 | 0.00 | 0.00 | 74 | 1021.4 |
| 20260906110029 | 17 | 352 | 0.0 | 1.6 | 0.00 | 0.00 | 0.00 | 74 | 1021.3 |
| 20260906105506 | 17 | 352 | 0.0 | 1.6 | 0.00 | 0.00 | 0.00 | 74 | 1021.3 |
| 20260906105008 | 17 | 352 | 0.0 | 0.0 | 0.00 | 0.00 | 0.00 | 73 | 1021.3 |
| 20260906104525 | 17 | 352 | 0.0 | 1.6 | 0.00 | 0.00 | 0.00 | 74 | 1021.3 |
| 20260906104009 | 17 | 352 | 0.0 | 1.6 | 0.00 | 0.00 | 0.00 | 73 | 1021.5 |
| 20260906103511 | 17 | 352 | 0.0 | 1.6 | 0.00 | 0.00 | 0.00 | 73 | 1021.2 |
| 20260906103020 | 17 | 352 | 0.0 | 1.6 | 0.00 | 0.00 | 0.00 | 73 | 1021.3 |
| 20260906102510 | 17 | 352 | 0.0 | 1.6 | 0.00 | 0.00 | 0.00 | 72 | 1021.3 |
| 20260906102012 | 17 | 352 | 0.0 | 1.6 | 0.00 | 0.00 | 0.00 | 72 | 1021.3 |
| 20260906101517 | 17 | 352 | 0.0 | 1.6 | 0.00 | 0.00 | 0.00 | 71 | 1021.3 |
| 20260906101010 | 17 | 352 | 0.0 | 1.6 | 0.00 | 0.00 | 0.00 | 70 | 1021.3 |
| 20260906100515 | 17 | 352 | 0.0 | 0.0 | 0.00 | 0.00 | 0.00 | 70 | 1021.3 |
| 20260906100033 | 18 | 352 | 0.0 | 0.0 | 0.00 | 0.00 | 0.00 | 70 | 1021.4 |
| 20260906095511 | 18 | 352 | 0.0 | 0.0 | 0.00 | 0.00 | 0.00 | 69 | 1021.4 |
| 20260906095013 | 18 | 352 | 0.0 | 0.0 | 0.00 | 0.00 | 0.00 | 69 | 1021.3 |
| 20260906094531 | 18 | 352 | 0.0 | 1.6 | 0.00 | 0.00 | 0.00 | 68 | 1021.1 |
| 20260906094010 | 18 | 352 | 0.0 | 1.6 | 0.00 | 0.00 | 0.00 | 69 | 1021.0 |
| 20260906093510 | 18 | 352 | 0.0 | 1.6 | 0.00 | 0.00 | 0.00 | 68 | 1020.9 |
| 20260906093037 | 18 | 352 | 0.0 | 1.6 | 0.00 | 0.00 | 0.00 | 68 | 1020.9 |
| 20260906092514 | 18 | 352 | 0.0 | 1.6 | 0.00 | 0.00 | 0.00 | 67 | 1020.8 |
| 20260906092012 | 18 | 352 | 0.0 | 1.6 | 0.00 | 0.00 | 0.00 | 66 | 1020.9 |
| 20260906091525 | 18 | 352 | 0.0 | 3.2 | 0.00 | 0.00 | 0.00 | 65 | 1020.8 |
| 20260906091012 | 18 | 352 | 0.0 | 3.2 | 0.00 | 0.00 | 0.00 | 64 | 1020.7 |
| 20260906090517 | 18 | 354 | 0.0 | 3.2 | 0.00 | 0.00 | 0.00 | 63 | 1020.5 |
| 20260906090024 | 19 | 355 | 0.0 | 3.2 | 0.00 | 0.00 | 0.00 | 63 | 1020.5 |
| 20260906085515 | 19 | 355 | 0.0 | 3.2 | 0.00 | 0.00 | 0.00 | 63 | 1020.6 |
| 20260906085016 | 19 | 355 | 0.0 | 4.8 | 0.00 | 0.00 | 0.00 | 62 | 1020.6 |
| 20260906084533 | 19 | 356 | 0.0 | 4.8 | 0.00 | 0.00 | 0.00 | 61 | 1020.6 |
| 20260906084014 | 19 | 352 | 0.0 | 6.4 | 0.00 | 0.00 | 0.00 | 60 | 1020.5 |
| 20260906083503 | 20 | 355 | 0.0 | 6.4 | 0.00 | 0.00 | 0.00 | 60 | 1020.6 |
| 20260906083017 | 20 | 351 | 1.6 | 6.4 | 0.00 | 0.00 | 0.00 | 59 | 1020.5 |
| 20260906082515 | 20 | 347 | 0.0 | 6.4 | 0.00 | 0.00 | 0.00 | 58 | 1020.6 |
| 20260906082004 | 20 | 341 | 1.6 | 6.4 | 0.00 | 0.00 | 0.00 | 58 | 1020.7 |
| 20260906081511 | 20 | 332 | 1.6 | 4.8 | 0.00 | 0.00 | 0.00 | 58 | 1020.7 |
| 20260906081010 | 20 | 333 | 0.0 | 3.2 | 0.00 | 0.00 | 0.00 | 57 | 1020.8 |
| 20260906080506 | 20 | 333 | 0.0 | 3.2 | 0.00 | 0.00 | 0.00 | 58 | 1020.7 |
| 20260906080009 | 20 | 333 | 0.0 | 4.8 | 0.00 | 0.00 | 0.00 | 59 | 1020.7 |
| 20260906075503 | 20 | 333 | 0.0 | 6.4 | 0.00 | 0.00 | 0.00 | 58 | 1020.7 |
| 20260906075007 | 20 | 331 | 0.0 | 6.4 | 0.00 | 0.00 | 0.00 | 57 | 1020.7 |
| 20260906074506 | 20 | 331 | 1.6 | 6.4 | 0.00 | 0.00 | 0.00 | 57 | 1020.7 |
| 20260906074003 | 20 | 350 | 0.0 | 1.6 | 0.00 | 0.00 | 0.00 | 57 | 1020.8 |
| 20260906073508 | 20 | 350 | 0.0 | 3.2 | 0.00 | 0.00 | 0.00 | 57 | 1020.9 |
| 20260906073027 | 21 | 350 | 0.0 | 4.8 | 0.00 | 0.00 | 0.00 | 56 | 1020.8 |
| 20260906072503 | 21 | 350 | 0.0 | 4.8 | 0.00 | 0.00 | 0.00 | 56 | 1020.7 |
| 20260906072008 | 21 | 348 | 1.6 | 6.4 | 0.00 | 0.00 | 0.00 | 55 | 1020.6 |
| 20260906071524 | 21 | 347 | 1.6 | 6.4 | 0.00 | 0.00 | 0.00 | 54 | 1020.5 |
| 20260906071004 | 21 | 342 | 0.0 | 6.4 | 0.00 | 0.00 | 0.00 | 53 | 1020.6 |
| 20260906070508 | 21 | 339 | 0.0 | 4.8 | 0.00 | 0.00 | 0.00 | 53 | 1020.5 |
| 20260906070020 | 21 | 339 | 0.0 | 6.4 | 0.00 | 0.00 | 0.00 | 52 | 1020.7 |
| 20260906065505 | 21 | 336 | 1.6 | 6.4 | 0.00 | 0.00 | 0.00 | 52 | 1020.7 |
| 20260906065004 | 20 | 330 | 0.0 | 3.2 | 0.00 | 0.00 | 0.00 | 51 | 1020.8 |
| 20260906064517 | 20 | 329 | 0.0 | 8.0 | 0.00 | 0.00 | 0.00 | 52 | 1020.9 |
| 20260906064006 | 20 | 329 | 0.0 | 8.0 | 0.00 | 0.00 | 0.00 | 52 | 1020.7 |
| 20260906063510 | 20 | 329 | 3.2 | 8.0 | 0.00 | 0.00 | 0.00 | 52 | 1020.8 |
| 20260906063010 | 21 | 333 | 0.0 | 3.2 | 0.00 | 0.00 | 0.00 | 52 | 1021.3 |
| 20260906062508 | 21 | 333 | 0.0 | 1.6 | 0.00 | 0.00 | 0.00 | 52 | 1021.3 |
| 20260906062011 | 21 | 333 | 0.0 | 1.6 | 0.00 | 0.00 | 0.00 | 51 | 1021.3 |
| 20260906061537 | 21 | 333 | 0.0 | 3.2 | 0.00 | 0.00 | 0.00 | 50 | 1021.2 |
| 20260906061006 | 21 | 333 | 0.0 | 3.2 | 0.00 | 0.00 | 0.00 | 50 | 1021.2 |
| 20260906060514 | 21 | 333 | 0.0 | 3.2 | 0.00 | 0.00 | 0.00 | 50 | 1020.9 |
| 20260906060028 | 22 | 333 | 0.0 | 1.6 | 0.00 | 0.00 | 0.00 | 49 | 1021.1 |
| 20260906055503 | 22 | 333 | 0.0 | 6.4 | 0.00 | 0.00 | 0.00 | 49 | 1021.1 |
| 20260906055008 | 22 | 333 | 0.0 | 6.4 | 0.00 | 0.00 | 0.00 | 47 | 1021.0 |
| 20260906054528 | 22 | 336 | 0.0 | 4.8 | 0.00 | 0.00 | 0.00 | 47 | 1020.9 |
| 20260906054004 | 22 | 344 | 0.0 | 4.8 | 0.00 | 0.00 | 0.00 | 46 | 1020.8 |
| 20260906053506 | 22 | 344 | 0.0 | 4.8 | 0.00 | 0.00 | 0.00 | 46 | 1020.9 |
| 20260906053022 | 22 | 4 | 0.0 | 3.2 | 0.00 | 0.00 | 0.00 | 46 | 1021.0 |
| 20260906052508 | 22 | 175 | 0.0 | 3.2 | 0.00 | 0.00 | 0.00 | 46 | 1021.0 |
| 20260906052006 | 22 | 175 | 0.0 | 3.2 | 0.00 | 0.00 | 0.00 | 47 | 1021.0 |
| 20260906051513 | 22 | 176 | 0.0 | 0.0 | 0.00 | 0.00 | 0.00 | 46 | 1021.0 |
| 20260906051008 | 22 | 176 | 0.0 | 4.8 | 0.00 | 0.00 | 0.00 | 47 | 1021.1 |
| 20260906050514 | 22 | 176 | 0.0 | 6.4 | 0.00 | 0.00 | 0.00 | 47 | 1021.1 |
| 20260906050013 | 22 | 172 | 1.6 | 11.3 | 0.00 | 0.00 | 0.00 | 47 | 1021.0 |
| 20260906045507 | 22 | 150 | 3.2 | 9.7 | 0.00 | 0.00 | 0.00 | 47 | 1020.9 |
| 20260906045015 | 22 | 327 | 0.0 | 0.0 | 0.00 | 0.00 | 0.00 | 46 | 1020.5 |
| 20260906044534 | 22 | 327 | 0.0 | 1.6 | 0.00 | 0.00 | 0.00 | 45 | 1020.3 |
| 20260906044013 | 22 | 327 | 0.0 | 3.2 | 0.00 | 0.00 | 0.00 | 45 | 1020.1 |
| 20260906043512 | 22 | 327 | 0.0 | 3.2 | 0.00 | 0.00 | 0.00 | 44 | 1020.1 |
| 20260906043028 | 23 | 327 | 0.0 | 3.2 | 0.00 | 0.00 | 0.00 | 44 | 1020.1 |
| 20260906042505 | 23 | 327 | 0.0 | 3.2 | 0.00 | 0.00 | 0.00 | 44 | 1020.2 |
| 20260906042008 | 23 | 327 | 0.0 | 3.2 | 0.00 | 0.00 | 0.00 | 43 | 1020.2 |
| 20260906041513 | 23 | 327 | 0.0 | 3.2 | 0.00 | 0.00 | 0.00 | 42 | 1020.1 |
| 20260906041012 | 23 | 327 | 0.0 | 6.4 | 0.00 | 0.00 | 0.00 | 41 | 1019.9 |
| 20260906040508 | 23 | 327 | 0.0 | 11.3 | 0.00 | 0.00 | 0.00 | 41 | 1019.9 |
| 20260906040011 | 24 | 327 | 4.8 | 11.3 | 0.00 | 0.00 | 0.00 | 40 | 1019.8 |
| 20260906035513 | 24 | 329 | 4.8 | 9.7 | 0.00 | 0.00 | 0.00 | 40 | 1019.7 |
| 20260906035014 | 24 | 331 | 3.2 | 9.7 | 0.00 | 0.00 | 0.00 | 39 | 1019.8 |
| 20260906034524 | 25 | 334 | 3.2 | 9.7 | 0.00 | 0.00 | 0.00 | 39 | 1019.9 |
| 20260906034012 | 25 | 342 | 0.0 | 6.4 | 0.00 | 0.00 | 0.00 | 38 | 1020.1 |
| 20260906033516 | 25 | 342 | 1.6 | 8.0 | 0.00 | 0.00 | 0.00 | 38 | 1020.0 |
| 20260906033018 | 25 | 339 | 3.2 | 8.0 | 0.00 | 0.00 | 0.00 | 36 | 1020.0 |
| 20260906032510 | 25 | 324 | 0.0 | 4.8 | 0.00 | 0.00 | 0.00 | 36 | 1020.0 |
| 20260906032015 | 25 | 324 | 1.6 | 6.4 | 0.00 | 0.00 | 0.00 | 35 | 1019.9 |
| 20260906031516 | 25 | 324 | 1.6 | 6.4 | 0.00 | 0.00 | 0.00 | 34 | 1019.8 |
| 20260906031008 | 26 | 325 | 0.0 | 9.7 | 0.00 | 0.00 | 0.00 | 35 | 1019.6 |
| 20260906030515 | 26 | 325 | 0.0 | 11.3 | 0.00 | 0.00 | 0.00 | 34 | 1019.7 |
| 20260906030019 | 26 | 324 | 4.8 | 11.3 | 0.00 | 0.00 | 0.00 | 34 | 1019.5 |
| 20260906025515 | 26 | 335 | 3.2 | 8.0 | 0.00 | 0.00 | 0.00 | 34 | 1019.5 |
| 20260906025010 | 26 | 336 | 0.0 | 8.0 | 0.00 | 0.00 | 0.00 | 34 | 1019.6 |
| 20260906024521 | 26 | 334 | 1.6 | 8.0 | 0.00 | 0.00 | 0.00 | 34 | 1019.6 |
| 20260906024013 | 26 | 332 | 1.6 | 11.3 | 0.00 | 0.00 | 0.00 | 34 | 1019.4 |
| 20260906023510 | 25 | 331 | 1.6 | 11.3 | 0.00 | 0.00 | 0.00 | 34 | 1019.3 |
| 20260906023024 | 25 | 331 | 6.4 | 16.1 | 0.00 | 0.00 | 0.00 | 35 | 1019.3 |
| 20260906022516 | 25 | 328 | 4.8 | 16.1 | 0.00 | 0.00 | 0.00 | 35 | 1019.1 |
| 20260906022025 | 25 | 312 | 6.4 | 14.5 | 0.00 | 0.00 | 0.00 | 35 | 1019.1 |
| 20260906021518 | 25 | 318 | 1.6 | 12.9 | 0.00 | 0.00 | 0.00 | 35 | 1019.2 |
| 20260906021003 | 25 | 305 | 3.2 | 12.9 | 0.00 | 0.00 | 0.00 | 35 | 1019.1 |
| 20260906020506 | 26 | 285 | 1.6 | 11.3 | 0.00 | 0.00 | 0.00 | 35 | 1019.0 |
| 20260906020022 | 26 | 303 | 3.2 | 11.3 | 0.00 | 0.00 | 0.00 | 34 | 1018.9 |
| 20260906015505 | 26 | 306 | 4.8 | 12.9 | 0.00 | 0.00 | 0.00 | 34 | 1018.8 |
| 20260906015005 | 26 | 318 | 4.8 | 12.9 | 0.00 | 0.00 | 0.00 | 33 | 1018.6 |
| 20260906014522 | 26 | 318 | 3.2 | 11.3 | 0.00 | 0.00 | 0.00 | 33 | 1018.6 |
| 20260906014004 | 26 | 325 | 4.8 | 14.5 | 0.00 | 0.00 | 0.00 | 33 | 1018.6 |
| 20260906013504 | 26 | 331 | 6.4 | 17.7 | 0.00 | 0.00 | 0.00 | 33 | 1018.6 |
| 20260906013010 | 26 | 328 | 6.4 | 19.3 | 0.00 | 0.00 | 0.00 | 33 | 1018.5 |
| 20260906012503 | 26 | 334 | 11.3 | 19.3 | 0.00 | 0.00 | 0.00 | 33 | 1018.5 |
| 20260906012012 | 27 | 332 | 8.0 | 17.7 | 0.00 | 0.00 | 0.00 | 32 | 1018.6 |
| 20260906011523 | 27 | 319 | 4.8 | 19.3 | 0.00 | 0.00 | 0.00 | 32 | 1018.6 |
| 20260906011006 | 27 | 312 | 8.0 | 19.3 | 0.00 | 0.00 | 0.00 | 32 | 1018.6 |
| 20260906010510 | 27 | 272 | 6.4 | 16.1 | 0.00 | 0.00 | 0.00 | 32 | 1018.7 |
| 20260906010010 | 27 | 270 | 3.2 | 19.3 | 0.00 | 0.00 | 0.00 | 32 | 1018.6 |
| 20260906005503 | 28 | 306 | 8.0 | 24.1 | 0.00 | 0.00 | 0.00 | 31 | 1018.7 |
| 20260906005012 | 28 | 265 | 8.0 | 24.1 | 0.00 | 0.00 | 0.00 | 30 | 1018.6 |
| 20260906004504 | 28 | 329 | 12.9 | 24.1 | 0.00 | 0.00 | 0.00 | 29 | 1018.6 |
| 20260906004003 | 28 | 326 | 9.7 | 17.7 | 0.00 | 0.00 | 0.00 | 28 | 1018.8 |
| 20260906003508 | 29 | 304 | 6.4 | 17.7 | 0.00 | 0.00 | 0.00 | 28 | 1018.9 |
| 20260906003015 | 29 | 323 | 6.4 | 19.3 | 0.00 | 0.00 | 0.00 | 27 | 1018.8 |
| 20260906002503 | 29 | 280 | 8.0 | 19.3 | 0.00 | 0.00 | 0.00 | 27 | 1018.8 |
| 20260906002006 | 30 | 285 | 8.0 | 20.9 | 0.00 | 0.00 | 0.00 | 27 | 1018.8 |
| 20260906001508 | 30 | 270 | 9.7 | 27.4 | 0.00 | 0.00 | 0.00 | 26 | 1018.7 |
| 20260906001010 | 30 | 295 | 12.9 | 27.4 | 0.00 | 0.00 | 0.00 | 25 | 1018.6 |
| 20260906000504 | 30 | 302 | 8.0 | 27.4 | 0.00 | 0.00 | 0.00 | 25 | 1018.6 |
| 20260906000012 | 30 | 319 | 14.5 | 27.4 | 0.00 | 0.00 | 0.00 | 25 | 1018.6 |
| 20260905235508 | 30 | 285 | 4.8 | 12.9 | 0.00 | 0.00 | 0.00 | 25 | 1018.5 |
| 20260905235012 | 30 | 294 | 1.6 | 6.4 | 0.00 | 0.00 | 0.00 | 25 | 1018.4 |
| 20260905234513 | 31 | 302 | 0.0 | 3.2 | 0.00 | 0.00 | 0.00 | 25 | 1018.5 |
| 20260905234008 | 31 | 304 | 0.0 | 6.4 | 0.00 | 0.00 | 0.00 | 25 | 1018.4 |
| 20260905233516 | 31 | 304 | 0.0 | 6.4 | 0.00 | 0.00 | 0.00 | 25 | 1018.4 |
| 20260905233016 | 31 | 349 | 0.0 | 1.6 | 0.00 | 0.00 | 0.00 | 26 | 1018.4 |
| 20260905232507 | 31 | 349 | 0.0 | 3.2 | 0.00 | 0.00 | 0.00 | 25 | 1018.4 |
| 20260905232016 | 31 | 349 | 0.0 | 3.2 | 0.00 | 0.00 | 0.00 | 25 | 1018.3 |
| 20260905231514 | 31 | 349 | 0.0 | 0.0 | 0.00 | 0.00 | 0.00 | 25 | 1018.2 |
| 20260905231006 | 31 | 349 | 0.0 | 0.0 | 0.00 | 0.00 | 0.00 | 24 | 1018.2 |
| 20260905230508 | 31 | 349 | 0.0 | 0.0 | 0.00 | 0.00 | 0.00 | 23 | 1018.2 |
| 20260905230010 | 31 | 349 | 0.0 | 0.0 | 0.00 | 0.00 | 0.00 | 23 | 1018.1 |
| 20260905225511 | 31 | 349 | 0.0 | 0.0 | 0.00 | 0.00 | 0.00 | 22 | 1018.1 |
| 20260905225009 | 31 | 349 | 0.0 | 0.0 | 0.00 | 0.00 | 0.00 | 21 | 1018.0 |
| 20260905224521 | 31 | 349 | 0.0 | 0.0 | 0.00 | 0.00 | 0.00 | 21 | 1018.1 |
| 20260905224010 | 31 | 349 | 0.0 | 0.0 | 0.00 | 0.00 | 0.00 | 23 | 1018.1 |
| 20260905223505 | 31 | 349 | 0.0 | 0.0 | 0.00 | 0.00 | 0.00 | 22 | 1018.1 |
| 20260905223015 | 32 | 349 | 0.0 | 3.2 | 0.00 | 0.00 | 0.00 | 22 | 1018.1 |
| 20260905222517 | 32 | 349 | 0.0 | 3.2 | 0.00 | 0.00 | 0.00 | 21 | 1018.0 |
| 20260905222013 | 32 | 349 | 0.0 | 3.2 | 0.00 | 0.00 | 0.00 | 22 | 1018.1 |
| 20260905221530 | 32 | 349 | 0.0 | 4.8 | 0.00 | 0.00 | 0.00 | 22 | 1018.0 |
| 20260905221010 | 32 | 349 | 0.0 | 8.0 | 0.00 | 0.00 | 0.00 | 20 | 1018.1 |
| 20260905220511 | 33 | 349 | 3.2 | 8.0 | 0.00 | 0.00 | 0.00 | 20 | 1018.1 |
| 20260905220013 | 33 | 342 | 1.6 | 9.7 | 0.00 | 0.00 | 0.00 | 21 | 1018.1 |
| 20260905215511 | 33 | 339 | 3.2 | 16.1 | 0.00 | 0.00 | 0.00 | 21 | 1018.2 |
| 20260905215013 | 33 | 20 | 3.2 | 16.1 | 0.00 | 0.00 | 0.00 | 20 | 1018.2 |